{"data":{"norad_id":65279,"intl_designator":"2025-184G","name":"STARLINK-35023","alt_names":[],"object_type":"PAYLOAD","status":"ACTIVE","operator":null,"country":"US","launch_date":"2025-08-22","launch_site_code":"AFWTR","launch_vehicle":null,"mission":null,"orbit_class":"UNKNOWN","rcs_meters":null,"size_class":null,"mass_kg":null,"dimensions":null,"purposes":["comms"],"wikipedia_slug":null,"has_3d_model":false,"image_url":null,"decayed_at":null,"tle_current":{"epoch":"2026-09-20T13:47:55.090752Z","epoch_age_seconds":111148,"freshness":"FRESH","line1":"1 65279U 25184G   26263.57494318  .00013423  00000+0  41712-3 0  9999","line2":"2 65279  97.2864 311.5087 0001410  74.0547 286.0851 15.33464399 60738","mean_motion":15.33464399,"eccentricity":0.000141,"inclination_deg":97.2864,"raan_deg":311.5087,"arg_perigee_deg":74.0547,"mean_anomaly_deg":286.0851,"bstar":0.00041712,"rev_number":6073,"period_min":93.905016701989,"perigee_km":464.52050654447,"apogee_km":466.45040807743,"semimajor_km":6843.622457311,"source":"CELESTRAK","updated_at":"2026-09-21T09:00:35.564852Z"}}}